Torna al catalogo

TIANTONG-1 3

AttivoComunicazioniGEO
NORAD 47321·PAYLOAD·🇨🇳 China

Lanciato Jan 19, 2021 da Xichang Satellite Launch Center

Loading…

TLE

AggiornatoSource: Space-Track

Epoca: Sep 14, 2026, 22:44 UTC

1 47321U 21003A   26257.94765419 -.00000161  00000-0  00000-0 0  9999
2 47321   1.7022 345.0535 0003311 202.5517 228.9637  1.00270098 20866

Traccia TIANTONG-1 3 in tempo reale con AllMySat

Download on the App Store